Theta_e
345 344 345 348 350 351 351 351 351 353 354 354 353 353 352 351 350 350 350 350 351 351 351 351 351 352 352 351 351 351 351 351 350 349 348 347 347 347 346 346 346 347 346 345 344 344 344 344 345 345 346 346 345 345 344 346 346 346 347 347 348 347 347 346 346 346 346 348 349 349 348 348 348 349 349 349 349 348 347 348 347 345 345 347 350
344 344 344 346 350 351 351 351 352 352 353 354 353 353 351 350 350 350 352 351 351 351 351 351 351 350 351 351 351 351 350 351 350 349 349 348 348 347 346 346 346 346 346 345 345 344 344 344 344 344 345 346 346 345 345 344 344 345 345 346 347 347 346 346 346 346 345 345 345 346 346 348 348 348 348 347 346 346 345 346 347 344 345 348 349
346 346 344 345 349 351 352 351 351 353 354 354 353 352 351 351 350 350 351 351 352 351 351 351 351 350 350 351 352 350 350 350 349 349 348 348 347 346 346 346 345 345 345 345 345 344 344 343 343 343 343 344 345 345 345 344 343 343 343 345 346 346 346 346 346 346 345 344 344 344 343 346 346 347 347 347 346 345 343 344 345 345 345 349 348
346 347 345 345 346 349 352 352 352 352 353 352 352 352 351 350 349 349 349 350 352 351 350 349 350 350 350 351 350 350 349 349 349 349 349 348 347 346 346 345 344 344 344 345 343 343 342 342 340 340 341 342 343 344 344 343 343 343 343 344 346 345 345 345 345 345 344 344 343 341 341 338 340 343 344 345 347 345 343 342 343 345 347 348 348
347 348 346 345 346 348 350 352 352 353 353 353 352 352 351 350 349 349 349 349 348 348 348 348 348 348 349 349 349 350 350 349 349 349 348 348 348 346 345 344 344 344 343 343 342 341 341 340 339 339 340 340 341 342 342 342 342 343 343 344 345 344 343 344 344 344 343 342 342 340 337 338 337 342 342 343 343 344 342 342 342 343 343 345 347
346 347 346 345 345 347 349 349 352 353 352 352 352 351 351 350 350 349 349 348 348 348 347 347 348 348 347 349 349 349 349 349 347 350 349 348 347 346 345 344 345 344 343 342 341 341 340 338 337 338 339 339 339 340 340 341 341 342 343 343 343 343 343 342 342 341 340 340 339 337 337 337 338 338 341 341 341 339 340 342 341 341 342 343 344
347 347 347 345 345 345 347 351 352 353 352 353 352 351 350 350 349 349 349 348 348 347 347 347 348 348 348 349 348 349 349 348 349 348 348 348 346 345 344 344 344 344 343 342 341 339 338 337 336 337 338 338 338 339 339 339 341 342 342 342 342 342 342 341 340 339 337 336 334 334 335 336 337 337 341 340 339 338 337 339 340 340 341 342 342
346 347 347 346 346 346 346 351 352 353 353 352 352 351 350 350 349 349 349 348 347 347 347 347 347 347 348 348 348 348 348 349 348 348 348 347 346 345 344 344 344 343 343 341 340 338 337 335 334 337 338 337 337 337 338 339 340 341 341 341 342 341 340 340 339 338 338 334 334 334 334 333 334 337 341 339 337 337 336 335 336 338 339 340 340
345 346 347 346 346 343 346 348 352 352 352 352 352 351 350 350 349 349 348 347 347 347 347 347 347 347 347 347 347 348 348 348 348 348 346 346 346 345 345 343 343 343 342 341 339 338 336 334 334 336 337 337 336 336 337 338 339 340 341 341 340 340 338 338 337 337 335 333 333 333 333 332 331 332 340 340 336 336 335 333 334 335 337 337 337
344 346 346 346 345 342 346 348 352 352 352 352 351 351 351 350 349 348 347 347 347 347 346 347 347 347 347 347 347 348 348 347 348 346 346 345 345 345 343 343 342 341 341 340 339 337 335 332 332 334 335 336 335 335 336 337 338 339 339 339 339 338 336 336 335 333 331 331 332 333 335 336 331 331 335 338 336 335 333 333 332 333 333 333 335
343 345 345 345 345 343 348 351 350 350 352 351 351 351 350 350 349 348 347 347 347 347 346 347 347 347 347 347 347 347 347 347 347 346 345 345 344 344 343 341 340 340 339 339 337 335 333 331 333 333 334 333 333 334 335 337 337 337 338 338 338 337 336 333 330 328 329 328 328 328 333 337 332 332 337 336 335 334 333 332 332 333 333 332 333
343 345 344 341 344 343 348 349 349 351 351 351 351 351 351 350 349 348 348 347 347 346 346 347 347 347 347 347 347 347 347 347 346 345 344 344 344 344 342 341 340 339 338 336 335 333 330 329 331 333 332 332 332 333 335 335 335 336 337 337 336 335 333 332 328 327 327 327 328 329 327 327 330 335 338 336 335 333 333 333 333 333 333 333 333
344 345 342 341 343 342 346 348 348 350 350 351 350 350 350 350 349 348 348 347 347 347 347 347 347 347 347 347 347 347 346 346 345 345 344 344 344 343 341 340 339 338 337 336 334 331 329 328 330 332 331 330 330 332 333 334 334 335 335 335 335 333 331 329 326 326 326 326 327 327 327 326 326 335 337 335 334 333 333 333 333 333 333 333 333
344 345 345 345 345 344 341 344 346 349 350 350 350 350 350 350 349 349 348 349 348 348 347 347 347 346 346 346 347 346 346 346 345 344 344 344 343 342 341 339 339 338 337 335 333 329 328 327 328 329 329 329 329 331 332 333 333 333 333 334 333 331 328 327 327 324 325 325 326 327 326 328 327 334 336 334 333 333 332 332 332 332 332 332 332
343 343 343 343 343 343 340 339 343 344 347 348 348 349 350 349 349 349 348 348 348 347 347 347 347 346 347 347 346 346 345 345 345 344 344 343 343 342 340 339 339 338 337 335 332 328 325 326 327 327 327 327 329 330 331 331 332 332 332 331 330 328 325 322 322 322 323 324 324 326 325 326 335 334 334 333 332 332 332 332 332 331 331 330 331
339 341 342 342 341 341 343 340 337 338 342 344 346 346 348 349 349 348 348 348 347 347 347 347 346 346 346 346 346 345 345 345 345 344 343 343 343 342 340 340 339 338 337 335 332 328 324 323 323 324 324 326 328 328 328 329 330 330 330 329 327 326 324 321 319 320 320 321 323 325 325 326 334 335 334 332 331 331 331 332 332 331 330 330 330
332 334 335 335 339 342 342 344 338 333 335 337 340 341 344 346 346 348 347 347 347 347 346 346 346 346 346 345 345 345 344 344 344 344 343 342 343 341 340 339 338 337 336 334 332 328 324 323 321 321 322 324 325 326 327 327 327 327 326 326 326 324 321 319 317 317 318 320 321 323 324 327 333 334 332 332 331 331 331 331 330 330 330 329 330
323 326 328 331 333 337 341 341 341 342 341 336 334 338 341 345 345 344 344 344 345 347 346 346 345 345 344 343 342 342 344 344 343 343 342 342 341 340 339 338 337 336 335 333 330 328 325 322 321 321 322 323 323 323 324 325 324 324 323 323 323 322 320 318 313 314 316 320 317 321 323 334 333 332 331 331 330 331 331 330 330 329 330 329 329
314 316 317 318 319 327 331 338 341 339 339 338 340 338 334 340 341 341 340 341 342 343 344 342 342 343 341 339 338 336 335 337 338 340 341 338 337 336 338 338 337 337 335 333 330 328 326 324 322 320 320 320 321 321 321 322 323 322 322 319 318 316 315 311 307 307 310 313 315 318 324 334 331 332 331 331 331 331 330 330 329 329 329 329 328
313 314 315 316 317 319 320 325 329 338 339 338 339 339 331 331 335 336 336 338 339 340 340 338 336 335 334 331 328 329 328 331 329 333 333 337 335 334 336 336 337 336 335 333 330 328 326 325 323 321 319 318 319 320 320 319 320 320 318 316 314 312 308 305 302 301 304 308 314 316 328 332 332 332 331 332 330 330 329 329 329 329 329 329 328
311 312 313 314 316 317 318 319 321 322 329 339 339 338 336 328 331 330 331 335 335 334 335 328 324 323 325 322 325 334 335 333 330 332 327 331 327 328 333 336 337 336 334 333 331 328 326 325 323 322 320 320 319 317 319 319 318 318 315 312 308 304 305 304 301 300 301 304 309 315 327 328 332 333 332 333 333 334 329 328 328 328 329 329 329
307 308 311 313 314 315 316 317 318 320 321 330 339 340 336 333 338 336 335 332 330 326 330 334 331 331 321 326 333 332 334 334 334 331 330 327 327 326 330 335 337 335 335 333 331 329 327 325 324 323 322 321 316 304 305 312 316 315 310 307 301 300 303 302 299 298 299 302 308 318 322 324 326 332 331 329 334 334 334 335 332 330 327 329 329
307 308 309 311 312 313 315 315 317 318 320 322 334 341 338 337 337 336 336 329 330 329 330 333 335 333 332 333 333 334 334 334 333 331 329 324 328 325 329 332 334 332 333 334 332 330 328 326 325 325 323 318 307 304 304 302 304 308 304 299 297 298 300 301 299 298 299 302 303 318 318 320 321 322 323 324 331 332 332 333 335 335 330 329 329
305 305 307 310 310 311 313 314 315 316 319 320 330 340 339 338 337 337 336 335 334 333 331 332 333 335 334 335 335 335 334 332 329 325 326 329 326 324 327 328 329 328 329 330 331 332 331 329 326 322 317 312 308 307 306 304 304 305 303 298 297 297 299 299 298 297 297 302 304 315 315 316 320 322 324 323 324 326 329 331 332 334 334 333 332
304 305 306 309 309 310 311 313 314 316 318 319 324 331 339 340 338 337 336 335 334 334 335 334 333 333 330 332 335 334 332 330 330 330 329 327 329 331 329 329 329 328 325 324 323 322 319 315 314 313 311 310 308 307 306 307 307 307 304 301 300 298 298 299 299 298 297 298 306 316 317 317 318 320 325 324 323 322 322 324 328 331 332 333 334
305 306 306 308 308 309 309 311 313 316 317 318 320 326 331 338 338 337 337 336 335 335 335 335 334 333 333 332 332 332 331 330 330 330 328 327 328 331 328 328 328 328 325 323 320 320 318 316 313 311 311 310 309 307 306 307 308 306 305 304 302 300 299 298 298 299 299 298 304 315 318 317 318 320 321 323 325 324 324 324 325 325 325 328 329
305 307 308 307 308 308 309 309 313 318 318 319 323 325 327 334 337 337 336 334 334 333 332 333 334 334 333 331 329 327 329 329 329 329 329 329 327 327 328 327 327 327 326 325 323 324 324 320 315 312 310 310 308 307 306 306 305 307 306 305 303 302 301 301 300 299 299 299 303 314 316 316 318 321 321 323 323 322 321 322 324 325 324 325 325
308 308 308 306 306 308 310 311 314 317 318 319 328 327 328 329 329 329 330 328 328 327 327 328 328 329 330 330 328 328 330 328 328 327 328 330 328 327 328 328 328 328 326 325 325 324 324 321 318 315 311 308 309 307 308 307 306 307 307 306 305 305 304 303 304 302 300 300 300 309 314 316 317 319 322 322 322 323 322 321 322 324 323 324 324
307 307 307 308 310 312 315 316 314 318 319 326 327 326 325 325 325 325 324 323 323 323 323 324 324 325 327 329 328 328 328 328 328 327 326 325 325 324 324 323 324 324 326 324 324 323 322 321 319 316 315 314 311 310 308 307 308 307 308 307 307 306 306 305 304 303 302 301 301 306 313 315 317 318 317 320 322 323 324 323 323 322 322 322 322
306 307 308 309 311 314 316 315 314 322 326 325 324 322 322 321 320 320 320 320 320 320 320 320 321 322 323 325 325 325 324 323 322 323 322 321 321 321 321 320 320 321 322 320 320 321 320 320 318 318 317 316 315 312 309 309 309 308 307 308 307 307 306 305 304 302 301 300 300 301 308 312 314 314 316 318 321 321 322 322 323 323 324 324 323
306 306 307 309 312 314 314 314 316 320 322 320 319 318 317 315 314 314 314 314 315 314 314 315 316 317 319 321 321 321 321 321 320 320 319 319 318 318 318 318 318 318 319 318 319 318 319 319 318 318 317 315 313 313 312 310 309 308 307 308 307 308 306 305 303 301 300 299 298 299 301 307 310 311 313 315 316 317 319 320 321 322 324 325 324
304 305 307 309 311 311 312 313 316 318 318 317 316 314 313 312 311 310 309 310 310 310 309 310 311 312 314 317 319 318 317 317 317 317 317 316 315 315 315 315 315 316 316 316 316 317 317 316 316 315 314 312 310 309 308 307 307 307 307 307 307 307 305 304 302 300 299 298 298 298 298 300 306 307 308 311 313 314 315 316 317 319 321 322 323
305 306 308 309 308 310 310 311 312 314 314 313 312 312 311 310 309 308 308 308 308 308 307 307 309 310 311 312 313 315 315 315 314 314 313 313 313 312 312 312 312 313 312 312 312 313 313 312 310 309 308 307 304 304 305 305 305 305 306 306 307 305 304 303 301 300 300 299 298 297 297 298 297 302 303 305 307 310 312 313 314 317 319 320 321
304 306 308 307 308 309 310 309 309 310 310 310 309 309 308 308 308 308 307 307 306 306 306 307 307 308 308 309 309 309 309 310 310 310 310 309 309 309 309 309 310 309 308 307 306 306 306 306 306 303 303 302 301 301 302 302 303 304 305 307 307 305 303 302 301 300 299 298 298 297 297 297 296 294 294 299 301 305 308 310 310 313 316 317 318
304 306 306 306 307 307 308 307 308 307 307 307 307 307 306 306 305 304 304 305 304 304 304 305 306 306 307 307 307 307 307 307 306 306 305 305 305 305 305 306 308 308 307 306 304 302 300 300 301 300 299 300 300 299 300 300 301 302 303 306 306 304 303 301 300 299 298 298 297 296 296 296 295 294 293 291 294 299 303 306 308 309 313 315 316
304 305 305 306 305 306 306 306 306 305 305 304 304 305 303 302 303 302 301 301 300 300 301 302 303 304 305 305 305 305 305 305 304 303 302 302 302 302 302 303 304 305 304 303 301 299 298 297 297 298 297 296 297 297 298 299 300 301 303 304 304 302 302 300 299 297 296 295 294 294 294 295 295 294 294 290 289 292 299 301 304 306 308 310 313
303 304 304 304 304 305 305 304 304 303 303 302 301 301 301 300 299 298 298 298 297 297 298 299 300 300 301 302 303 303 303 303 302 301 299 299 299 300 300 300 301 302 302 301 301 299 297 295 293 294 294 292 292 293 295 296 298 299 300 300 300 300 299 299 297 295 294 292 292 292 293 293 294 296 292 291 289 288 293 298 299 301 302 307 309
304 305 305 304 304 304 304 303 302 302 302 301 299 299 298 298 298 297 296 295 295 295 296 297 297 297 298 298 299 299 300 299 298 297 296 296 296 296 296 297 298 298 298 298 297 296 294 292 290 290 289 289 288 289 292 294 297 296 295 296 297 297 296 296 295 294 291 290 289 289 290 291 292 292 292 290 289 288 287 291 295 296 297 302 306
305 305 304 304 303 303 302 301 301 301 300 299 298 298 297 296 296 295 294 293 293 293 294 294 294 295 295 295 295 295 295 295 295 294 293 292 292 292 293 293 294 293 293 292 293 293 293 291 289 288 288 287 286 287 289 294 295 294 293 293 293 293 294 294 294 292 290 289 289 289 289 288 290 291 290 290 289 288 287 286 286 286 288 297 302
304 304 304 304 303 302 302 301 301 300 300 299 298 297 296 295 293 293 292 292 291 291 291 291 292 292 293 293 293 293 293 292 292 292 291 291 290 290 291 291 291 291 290 289 289 289 289 288 288 286 286 287 287 287 287 293 294 293 292 292 291 291 291 291 292 292 291 288 287 287 286 286 287 289 288 288 288 288 287 286 287 286 287 291 297
302 303 304 303 303 302 302 300 301 301 300 299 298 296 294 293 292 291 290 291 290 290 289 289 290 290 291 291 290 290 290 290 291 291 290 290 289 289 289 289 289 289 288 287 287 287 288 287 286 287 286 285 285 286 286 288 294 293 293 292 291 291 292 289 288 289 289 288 286 286 285 285 285 286 287 285 286 287 287 286 286 286 286 286 288
302 302 302 302 302 302 302 301 301 300 300 298 297 296 295 293 291 290 289 289 289 288 288 288 288 289 289 289 289 289 289 289 289 289 288 288 288 287 287 287 288 288 287 287 287 288 286 286 285 285 285 285 284 285 285 286 288 288 290 289 290 289 290 290 289 287 286 286 286 285 284 284 284 285 285 284 285 285 286 285 285 285 285 286 286
302 301 300 299 299 299 298 298 298 297 297 297 296 294 293 292 291 289 289 288 289 288 288 288 288 287 287 288 288 288 288 288 288 288 288 287 287 287 286 286 286 287 286 286 286 285 285 285 285 283 283 284 284 285 285 285 284 285 287 286 285 287 290 285 286 287 285 284 285 284 284 284 284 284 284 284 284 284 285 285 285 285 285 285 285
300 300 298 298 297 296 296 296 296 295 295 294 293 292 291 291 290 289 289 288 287 287 287 287 287 287 286 287 287 287 287 287 287 287 287 286 286 286 286 286 286 286 286 285 285 284 284 284 284 284 282 282 282 283 284 284 283 284 283 285 284 281 277 280 281 283 283 283 284 283 284 283 283 283 283 283 283 283 283 284 284 284 285 285 285
299 299 297 297 296 295 295 295 295 293 293 292 291 290 289 288 288 288 288 286 286 286 285 285 285 286 285 285 285 286 286 286 286 286 286 286 286 286 286 285 285 285 285 285 284 284 284 283 284 284 282 282 281 281 283 284 283 284 283 279 279 278 279 278 279 278 280 282 281 282 283 282 282 283 282 282 282 282 282 283 283 284 284 285 285
298 299 297 296 295 295 294 294 293 292 291 291 290 290 289 287 286 285 284 284 283 283 283 283 283 283 284 284 285 285 285 285 285 285 286 286 285 285 285 285 284 285 285 284 284 284 284 284 284 283 283 282 282 281 280 283 283 283 282 282 280 278 278 277 276 275 278 279 279 281 280 281 281 281 281 281 281 281 282 282 282 283 283 284 285
297 298 296 294 294 294 293 293 292 291 291 290 290 289 288 287 286 286 285 284 282 282 283 283 284 284 284 284 284 284 284 285 284 284 285 285 285 285 284 284 284 284 284 284 283 283 283 283 284 283 283 284 282 280 279 279 279 282 282 281 282 281 279 276 276 276 273 276 277 280 278 281 281 280 281 281 281 281 282 282 282 282 283 283 284
296 296 295 294 293 293 292 292 291 291 290 290 289 288 287 286 285 284 284 283 283 283 283 283 284 284 284 283 283 283 284 284 284 284 284 284 284 284 284 284 284 283 284 283 282 282 283 283 283 283 283 282 281 281 279 279 278 279 280 280 280 280 279 279 277 276 277 275 275 277 277 280 280 279 279 280 280 280 280 281 281 282 282 283 283
295 294 294 293 293 292 292 292 291 291 291 289 288 286 286 286 285 284 283 283 284 283 284 285 283 283 283 283 283 283 283 283 283 283 283 284 284 283 283 283 283 283 283 283 282 282 282 281 281 282 281 281 281 281 280 278 279 278 277 278 277 278 277 278 277 277 276 275 274 275 276 278 278 278 279 279 279 280 281 280 281 282 282 282 282
294 294 293 292 292 291 291 291 291 290 289 287 286 286 286 286 284 284 283 283 284 283 283 282 282 282 282 282 282 282 282 282 282 283 283 283 283 283 283 282 282 282 283 282 281 281 281 281 281 281 281 280 280 281 280 279 279 278 278 278 278 277 277 277 277 276 275 276 275 275 275 275 275 276 279 278 280 280 280 280 280 280 280 281 282
292 292 292 292 291 291 290 290 288 288 287 286 286 285 285 285 284 284 283 283 283 282 282 281 282 282 281 281 282 282 282 282 282 282 282 282 282 282 282 282 282 282 282 281 280 280 280 280 280 280 280 280 279 279 280 279 279 279 278 278 277 278 278 276 276 276 275 274 274 274 275 275 275 275 275 278 280 280 279 278 278 279 280 280 281
Wind_Speed
3 6 4 5 5 6 9 9 11 12 13 13 13 13 13 12 12 12 11 11 12 12 13 13 13 13 13 12 13 15 14 15 16 16 15 16 16 17 17 18 18 18 18 18 18 17 17 16 15 14 14 14 14 13 13 13 13 13 13 13 14 13 13 13 11 11 13 15 17 17 15 15 17 18 18 19 20 20 18 17 14 9 7 10 15
7 4 3 4 6 6 10 9 11 12 14 13 13 13 13 12 11 10 9 13 12 12 12 13 13 12 13 12 12 13 14 16 16 16 16 16 16 17 17 17 17 18 18 17 17 16 15 15 14 14 13 13 13 12 12 12 12 12 12 13 13 14 13 14 12 10 13 14 14 15 17 17 17 18 18 18 18 18 17 17 16 8 6 14 15
7 6 3 5 7 5 9 11 12 13 14 13 13 13 12 11 10 9 9 12 12 12 12 13 14 12 12 13 13 12 14 15 15 15 15 16 16 16 17 17 17 17 17 17 16 16 15 15 14 13 13 12 12 12 12 12 11 12 12 13 14 14 14 15 14 13 14 14 14 15 14 16 17 17 18 18 18 18 17 17 17 15 9 16 15
9 6 4 5 7 5 7 7 11 13 13 13 13 12 11 11 11 11 10 11 13 12 12 12 13 14 13 12 12 13 14 15 15 15 15 16 17 16 16 16 16 16 16 16 16 15 15 14 14 13 13 12 12 12 12 12 12 12 13 13 14 13 14 14 13 14 14 14 13 10 6 7 10 18 17 17 18 18 16 16 17 17 17 16 17
8 7 5 5 4 6 8 8 11 12 13 12 12 12 12 11 11 11 11 11 11 12 12 11 11 12 13 12 12 12 13 14 14 15 15 16 16 15 15 15 16 16 16 15 15 14 14 14 13 13 13 13 12 12 12 12 12 12 13 13 13 13 13 13 13 14 14 13 13 10 6 6 6 16 16 16 17 17 16 16 16 16 16 17 17
6 6 5 4 4 6 10 10 13 12 12 12 12 12 11 11 11 11 11 11 11 11 12 11 11 11 12 13 13 12 13 14 13 15 15 15 16 15 14 15 15 15 14 14 14 14 13 13 12 12 13 12 12 12 13 13 13 13 13 13 13 14 14 13 14 14 12 11 9 6 7 6 5 7 17 16 16 16 16 16 16 15 15 16 15
8 5 5 5 4 4 9 10 13 12 12 12 11 11 11 11 10 11 11 12 12 11 11 11 11 11 11 11 12 13 13 13 14 14 15 15 15 15 14 14 14 14 14 14 13 13 13 12 12 12 12 12 13 13 13 13 14 14 14 14 14 15 15 15 15 13 10 6 6 5 6 7 5 4 16 15 16 16 16 15 15 14 14 14 16
5 5 4 5 5 6 9 9 10 12 12 11 11 10 10 10 10 10 10 11 11 11 11 11 11 11 11 11 12 12 12 13 14 14 14 15 14 13 14 14 14 14 14 13 13 13 12 12 12 12 13 13 13 13 14 14 14 14 15 15 15 16 15 15 14 11 10 6 5 5 5 5 5 4 15 15 16 16 15 15 14 13 14 14 13
5 4 5 4 5 8 8 8 10 11 12 11 11 11 10 10 9 9 10 11 11 11 11 11 11 11 11 11 11 11 12 13 13 14 14 14 14 14 14 14 14 14 13 13 13 13 13 12 12 12 12 13 13 14 14 14 15 15 15 15 15 16 14 13 11 11 7 5 5 6 6 5 4 5 13 16 16 16 15 12 10 13 13 14 12
4 5 5 5 5 8 8 8 9 10 11 11 9 10 10 9 9 9 9 10 10 11 11 11 11 11 11 11 11 11 11 12 14 13 13 13 14 14 14 14 13 13 13 13 13 13 12 12 12 12 12 13 13 13 14 15 15 15 15 15 16 16 15 14 11 9 6 5 6 5 7 9 4 5 11 16 16 15 14 13 11 11 11 13 13
5 5 4 4 7 10 9 9 9 8 10 9 9 10 9 9 9 9 9 9 10 11 11 11 11 11 11 11 10 11 11 12 13 12 12 13 13 14 14 13 13 12 13 13 12 12 12 12 12 12 13 13 13 14 14 15 15 15 15 16 17 16 15 13 9 6 6 7 6 5 6 10 4 4 13 15 14 14 13 12 12 12 13 13 12
5 4 3 3 7 11 10 10 10 9 9 8 9 9 9 8 8 8 9 9 10 10 11 11 10 10 10 10 11 11 12 12 12 12 12 13 13 13 13 13 13 12 12 12 12 12 12 12 12 12 13 13 13 14 15 15 15 15 16 17 17 17 15 13 8 7 7 7 7 5 5 4 4 9 16 16 14 14 14 14 13 13 14 13 13
5 5 3 3 4 9 10 10 10 10 10 10 10 9 8 8 8 8 8 8 8 9 10 10 10 10 10 10 11 11 12 12 12 12 12 12 13 14 13 13 12 12 12 12 12 12 12 12 12 12 13 13 13 14 14 15 15 16 17 16 16 15 14 11 7 7 7 6 6 6 6 5 4 14 15 16 13 14 14 14 14 13 13 13 13
5 5 4 3 3 6 9 9 9 9 10 9 9 8 8 7 7 8 8 7 6 8 9 9 9 10 10 10 10 10 11 12 12 12 11 11 13 13 13 12 12 12 12 12 12 12 12 13 13 13 13 13 13 13 14 14 15 16 16 16 15 14 11 8 7 7 7 6 6 7 6 6 5 14 15 15 13 13 13 14 14 13 13 13 13
6 5 4 4 3 3 5 7 8 8 8 8 7 8 8 7 6 6 7 6 6 7 8 8 7 8 9 10 10 11 12 12 12 12 11 12 12 13 12 12 12 12 12 12 12 12 13 13 13 13 13 13 13 14 14 14 15 15 15 15 14 13 11 7 6 6 6 6 5 6 6 5 12 14 14 15 13 13 13 14 14 13 12 12 13
6 5 4 4 3 2 2 4 7 7 7 7 7 7 6 6 4 5 5 6 7 7 7 8 8 7 8 8 10 11 12 12 11 11 11 11 12 13 12 12 11 11 12 12 12 12 13 13 13 13 13 13 14 14 14 15 15 15 15 14 13 12 11 7 6 5 5 5 5 5 6 5 13 14 14 14 12 12 13 13 13 12 12 13 14
7 6 7 5 4 2 1 4 5 7 7 7 7 6 7 6 5 4 4 4 6 6 7 7 8 8 7 7 7 8 9 11 11 11 10 10 12 12 12 12 11 11 12 12 12 12 13 12 12 12 12 13 13 14 14 14 14 14 14 13 12 11 10 8 6 5 5 5 5 5 5 5 11 14 14 13 12 12 13 13 12 13 12 13 13
7 7 7 5 5 3 1 3 4 4 3 5 6 7 6 7 6 5 3 3 4 7 7 6 7 8 7 6 6 7 8 9 10 10 10 10 11 10 11 12 11 11 12 12 12 12 12 12 11 12 12 13 13 13 13 13 13 13 12 12 11 11 10 8 5 4 5 5 5 4 5 5 13 13 13 12 12 13 13 12 12 12 11 12 12
7 8 7 8 5 3 6 2 3 3 3 4 4 5 7 5 6 6 5 4 3 6 8 7 8 8 8 7 7 6 6 8 9 9 9 9 10 11 11 11 11 11 11 11 11 11 11 11 11 11 12 13 14 14 13 13 13 13 12 11 10 10 10 7 5 5 4 5 5 5 5 9 11 10 11 11 12 12 11 11 12 12 12 11 11
6 7 7 6 6 7 6 4 5 2 3 3 4 4 5 7 5 6 3 1 1 4 7 9 10 9 9 9 9 7 5 5 8 7 8 8 10 8 10 9 11 11 11 10 10 9 10 11 11 11 11 12 13 12 12 13 13 13 13 12 10 10 7 6 5 6 6 6 5 6 8 13 10 9 11 11 11 11 10 10 10 11 13 13 11
5 6 6 6 5 5 6 4 4 4 4 1 4 4 5 7 6 9 10 5 3 2 4 6 7 8 8 8 8 6 4 4 5 4 6 5 9 10 10 10 10 10 10 10 9 9 8 9 10 10 10 10 9 10 10 10 11 11 10 10 11 7 6 6 6 5 5 6 6 6 12 13 13 11 11 11 11 12 10 8 8 8 10 12 11
4 5 5 6 6 5 6 5 5 6 4 3 3 3 4 5 5 5 6 6 4 3 2 4 4 3 5 5 3 4 4 4 4 5 4 5 8 11 10 9 9 8 8 9 9 9 8 8 8 8 9 8 8 5 5 7 9 9 9 10 7 6 5 5 5 6 6 6 6 9 14 13 13 11 12 11 11 12 12 13 11 9 5 7 9
5 5 5 6 5 4 4 4 4 5 6 3 2 5 5 5 5 5 5 5 5 4 2 2 3 4 3 2 3 2 3 4 4 4 5 4 6 10 10 9 9 8 7 7 7 8 8 8 8 8 8 8 5 4 4 5 7 9 9 7 6 6 5 5 5 6 6 5 5 11 14 14 13 12 11 11 11 11 13 13 14 14 8 6 8
2 3 4 4 5 5 6 4 5 5 4 3 3 3 5 5 5 4 4 5 4 3 3 2 2 3 2 1 2 3 3 3 4 7 7 4 5 10 11 10 9 7 8 5 5 6 7 8 8 9 7 4 3 4 4 4 6 5 6 6 6 5 6 4 5 5 7 5 6 13 15 15 15 15 14 12 11 11 12 12 13 13 13 12 11
1 1 3 5 5 5 6 6 6 4 3 4 3 2 4 4 4 4 4 3 4 4 3 4 5 4 3 3 3 3 3 2 3 3 4 3 3 5 6 4 4 4 5 4 4 4 5 4 4 4 5 5 4 3 3 5 5 5 6 5 6 5 5 5 4 5 6 6 6 12 14 17 16 16 16 15 15 13 13 12 12 13 14 12 12
2 4 3 4 4 4 4 5 6 5 2 3 4 4 3 3 3 4 4 3 4 4 3 3 5 5 4 3 4 4 3 3 2 4 5 3 3 5 4 5 4 4 3 4 3 3 3 3 3 3 4 5 4 4 3 3 5 5 6 5 6 5 6 6 5 5 5 6 6 12 12 17 18 18 17 17 17 17 17 16 14 13 12 13 13
3 2 3 3 3 4 5 4 5 5 4 2 3 2 2 3 3 4 5 4 4 5 4 3 4 4 3 3 4 4 4 3 4 5 4 3 3 1 4 3 3 3 2 4 3 2 3 4 4 3 3 4 4 4 3 3 3 4 5 5 5 5 6 6 6 6 6 6 7 13 13 17 19 19 18 18 18 18 18 18 17 17 17 16 16
1 3 3 3 3 5 4 3 4 4 2 2 2 3 3 5 5 5 6 5 6 5 6 5 5 4 3 3 2 3 4 4 4 4 3 3 3 4 3 2 3 2 3 2 4 3 3 3 3 2 3 3 4 4 4 3 4 4 5 4 5 5 5 6 6 6 7 7 7 11 14 16 18 18 19 20 20 19 18 17 17 18 18 18 18
2 1 3 3 4 4 4 4 3 2 2 3 5 4 5 6 6 6 6 6 6 5 6 6 5 5 6 5 4 5 5 5 5 5 5 6 5 5 5 4 2 1 2 2 2 4 4 4 3 2 3 5 4 4 4 4 5 5 5 5 5 5 6 7 7 8 8 7 8 11 16 16 18 19 20 21 21 21 20 20 19 19 18 18 17
0 1 3 3 4 5 4 4 3 3 6 6 4 5 5 8 6 6 6 7 7 5 7 7 6 6 6 6 6 6 5 5 6 5 6 6 6 6 6 5 5 6 5 6 4 5 5 4 4 4 5 5 6 5 6 6 6 5 5 5 5 6 7 7 8 8 7 7 8 9 18 17 19 22 21 21 21 22 22 22 21 21 20 19 18
1 2 2 3 3 4 4 4 3 5 7 7 5 7 7 8 6 5 7 7 6 7 7 7 6 7 6 7 7 7 6 7 7 7 6 7 7 7 7 6 7 6 5 6 5 6 5 4 4 5 5 6 6 5 6 6 5 6 5 6 5 6 7 7 8 8 8 7 7 7 10 18 19 21 22 21 22 21 22 21 21 21 21 21 20
2 1 1 2 2 4 4 4 4 5 9 8 7 9 7 8 7 7 5 7 9 7 5 7 6 7 7 8 8 7 7 7 7 7 7 7 7 7 7 7 7 6 6 6 6 6 6 4 7 7 6 5 5 6 5 5 6 6 6 6 5 7 7 8 8 8 8 8 7 7 8 9 14 19 20 22 22 22 21 22 21 21 20 20 20
0 0 1 2 3 3 4 5 5 6 10 9 8 8 7 8 7 8 7 7 7 8 7 5 6 7 7 8 8 8 7 7 7 8 7 7 7 8 8 7 6 6 6 7 8 6 6 7 8 7 7 6 7 6 5 6 7 6 5 6 6 7 7 8 8 8 9 8 8 7 7 8 8 12 17 20 21 22 22 22 22 22 21 21 20
2 1 2 3 3 2 3 4 6 9 9 8 8 8 6 8 6 7 7 7 7 8 7 6 6 6 7 8 8 8 7 6 7 7 7 8 8 8 7 7 6 7 7 7 8 6 7 8 6 7 7 7 7 6 6 7 5 5 6 4 6 7 8 8 8 8 8 8 7 8 7 7 7 8 9 15 19 21 22 22 22 22 22 21 21
2 3 4 4 5 4 3 5 6 8 10 8 9 8 8 8 6 5 7 8 7 7 7 6 6 6 6 7 8 8 7 8 7 7 7 7 8 8 8 6 6 6 8 7 8 7 8 8 6 6 6 6 5 6 6 5 6 7 5 5 7 7 8 8 8 8 8 8 8 8 7 7 7 7 7 8 11 17 20 21 22 22 22 22 22
3 4 5 5 6 5 5 8 7 10 9 9 10 9 8 8 7 7 6 8 7 7 5 6 6 6 7 7 8 8 8 8 8 7 8 7 8 8 6 5 6 7 7 6 7 8 7 7 8 6 6 7 6 7 5 6 6 6 6 6 7 7 8 8 9 9 7 8 8 7 7 7 7 7 7 7 8 11 17 19 20 21 22 22 22
3 4 5 6 7 6 6 8 9 10 10 10 11 10 9 9 9 8 7 9 8 5 5 6 6 7 6 7 7 7 8 9 8 7 8 8 8 8 6 6 6 7 8 7 8 6 7 7 8 8 6 6 6 6 6 5 6 7 7 9 8 9 8 8 8 7 7 9 8 7 7 7 7 7 7 7 7 8 11 17 18 18 19 20 22
3 5 4 7 7 6 6 7 9 9 8 9 9 11 9 9 8 8 9 9 8 6 5 6 7 6 7 7 7 8 8 9 8 7 8 8 8 7 7 7 7 8 8 8 8 6 6 7 9 8 7 6 7 6 6 5 6 8 9 9 9 9 8 8 8 8 9 9 8 8 6 7 7 7 8 7 7 8 8 12 16 16 17 19 21
4 6 6 6 7 7 7 8 9 8 9 10 10 12 11 10 9 10 10 9 8 7 5 6 5 7 7 7 8 8 8 8 8 7 9 8 8 8 7 6 6 7 8 8 8 7 8 7 8 6 7 8 6 5 4 6 8 8 9 9 9 9 7 7 8 8 8 7 8 7 7 8 7 7 8 8 7 7 8 8 8 8 10 17 19
4 5 7 7 8 8 7 7 8 9 9 9 9 8 8 8 9 9 10 8 8 8 7 7 6 7 7 8 8 8 7 8 8 8 9 8 8 8 8 7 6 7 9 10 7 7 7 8 7 5 6 8 9 6 5 5 8 9 9 8 8 8 9 8 8 7 7 7 7 7 8 7 8 7 7 7 8 8 8 8 8 7 7 11 17
4 6 7 8 9 9 9 9 8 8 8 9 8 8 10 8 7 6 8 6 7 7 8 6 7 7 8 8 8 7 7 8 8 8 9 9 8 7 9 8 7 9 9 8 6 6 5 5 6 7 10 12 11 8 6 3 7 7 6 6 7 5 8 9 9 8 7 6 6 8 7 8 8 8 7 7 8 8 8 8 8 7 8 7 9
5 6 7 6 7 8 9 9 7 7 6 6 7 6 5 7 10 8 10 7 6 7 8 7 6 7 8 8 7 7 8 8 8 8 9 9 9 8 8 7 7 8 8 7 7 7 7 7 4 10 7 11 8 7 8 2 5 4 5 3 3 2 4 8 9 6 7 7 7 8 8 8 9 7 8 8 8 8 8 8 8 8 8 7 7
6 6 6 6 6 7 7 6 6 6 5 6 6 8 8 7 8 8 9 10 6 6 7 6 6 8 8 7 7 7 8 8 8 8 9 8 9 9 8 7 7 6 9 9 8 9 7 7 7 6 7 5 7 7 10 6 3 1 1 4 2 1 2 5 4 5 5 6 6 8 8 9 9 7 7 8 8 9 8 8 8 9 9 8 8
5 6 6 7 5 6 6 6 6 6 6 6 8 8 10 11 10 10 8 9 10 7 8 7 7 9 10 7 7 7 7 8 7 8 8 8 8 9 7 8 8 7 8 9 9 8 7 7 6 5 4 9 6 8 7 7 5 1 2 2 1 2 2 4 5 4 2 6 8 7 7 8 8 8 7 9 8 8 8 7 9 8 9 9 8
5 6 6 6 5 6 7 7 7 7 7 8 10 12 13 11 11 11 11 12 8 8 9 8 7 7 8 8 7 5 7 8 8 8 8 9 7 8 9 8 8 7 7 9 8 7 5 5 5 7 6 8 7 5 8 9 10 6 5 3 2 4 0 3 4 2 3 4 5 6 7 8 8 7 6 7 7 7 7 8 8 8 9 9 9
6 6 5 6 7 7 7 7 7 7 9 10 11 10 12 14 11 11 9 9 8 7 9 10 7 7 8 4 6 5 7 8 7 7 8 7 9 8 8 9 8 7 7 7 6 7 8 8 6 5 7 5 8 6 5 6 8 10 8 4 2 3 0 2 3 3 6 1 3 4 6 8 6 8 7 7 8 8 6 7 6 8 8 8 8
6 6 5 6 7 8 7 9 8 8 8 10 8 8 9 8 10 11 10 11 11 4 4 5 8 6 6 7 6 6 6 8 7 7 7 7 8 8 8 8 8 7 6 8 9 7 6 5 5 7 5 4 5 7 5 1 3 8 7 7 9 6 2 3 1 1 4 5 4 5 4 9 8 7 8 9 9 9 9 7 7 7 7 6 8
7 7 7 7 9 8 8 9 8 9 8 8 7 5 10 8 9 10 9 10 11 10 8 7 5 6 8 7 7 7 6 6 7 7 7 7 8 8 8 8 9 7 7 7 7 5 6 6 6 6 6 6 6 8 6 5 6 2 3 6 5 5 5 6 2 2 1 3 6 4 2 7 8 5 4 7 7 8 8 8 8 8 7 7 7
8 8 8 8 8 8 8 9 9 8 7 6 6 5 6 11 11 11 10 7 10 9 7 6 7 6 10 6 7 6 7 7 7 7 7 8 8 8 8 8 8 7 6 7 6 6 7 7 7 8 8 7 6 4 8 5 6 3 2 4 4 5 4 4 4 4 3 1 5 4 8 3 2 4 6 5 6 7 6 6 6 6 6 7 7
6 7 7 8 7 7 9 10 9 6 7 6 6 7 7 10 12 12 15 11 9 8 7 8 7 6 9 7 7 7 6 7 7 7 8 7 7 7 7 7 7 6 6 7 7 7 7 8 7 6 7 8 5 7 7 6 6 5 5 3 6 3 5 5 6 5 2 2 1 6 5 8 11 7 7 7 9 8 5 5 6 5 5 5 6
6 7 8 8 8 8 9 10 7 6 7 8 8 9 6 8 12 13 16 15 11 12 11 8 7 7 9 7 7 7 6 7 6 7 7 6 6 5 6 6 6 6 7 7 7 7 6 6 6 7 8 8 7 7 7 6 6 7 6 7 6 6 3 2 1 2 2 1 3 4 4 3 5 8 4 5 9 9 6 4 3 5 5 5 5
Wind_Direction
159 154 174 170 166 163 139 129 128 123 122 118 115 109 108 110 105 101 104 97 86 86 89 93 96 97 96 90 88 87 88 85 80 78 75 74 73 71 69 67 65 62 61 60 58 57 57 54 51 49 47 45 44 42 40 38 35 34 39 44 47 47 41 39 38 40 45 46 52 55 59 63 58 55 53 50 50 49 48 47 43 40 40 46 56
161 168 173 161 175 170 145 136 128 123 116 115 111 109 108 108 106 102 98 101 103 98 94 88 84 91 96 94 89 91 89 86 85 84 82 77 74 74 72 69 65 63 61 60 58 56 55 54 51 47 45 44 43 42 41 40 35 31 33 39 44 44 40 45 55 57 55 46 44 49 52 55 61 61 57 53 50 48 45 43 43 41 32 51 53
139 153 183 164 172 182 144 141 132 123 117 114 113 112 113 111 109 102 100 103 101 101 95 91 88 86 95 97 95 98 94 92 93 92 89 84 79 76 72 69 66 63 60 58 56 55 53 52 50 47 44 42 42 42 42 40 36 31 29 34 42 43 39 46 68 73 63 55 54 54 47 53 53 54 55 52 51 47 43 43 43 43 45 46 49
140 157 170 169 173 168 134 134 128 123 119 117 118 118 117 114 111 108 101 105 108 105 98 92 96 92 92 97 100 98 99 101 100 98 93 90 85 78 73 71 68 65 62 59 56 54 52 51 50 48 46 42 41 42 42 39 36 32 30 30 36 41 42 47 62 71 65 57 53 43 35 29 40 51 52 50 48 47 43 40 41 43 41 42 43
141 148 164 164 166 149 143 137 132 127 123 123 123 124 121 118 114 113 111 102 102 100 97 95 93 94 92 97 99 99 100 97 96 95 91 89 86 81 77 74 71 67 64 60 57 54 52 50 49 49 47 45 42 43 42 39 36 33 31 33 32 35 41 54 70 70 66 64 60 52 36 33 39 53 53 52 50 44 43 42 40 40 37 35 37
141 141 159 158 154 149 147 149 140 133 129 129 128 127 126 124 122 118 116 113 110 109 107 105 101 92 93 93 99 102 101 102 99 94 94 93 89 85 79 77 75 72 67 62 57 54 52 51 49 50 49 47 47 45 43 39 37 35 35 35 30 28 39 59 75 73 68 61 54 51 41 35 39 50 56 53 50 45 41 42 44 39 37 36 28
145 145 152 154 149 154 143 147 140 136 134 130 129 128 127 124 124 121 119 120 117 113 112 111 107 102 99 96 99 102 104 104 101 97 95 94 92 91 86 79 75 71 67 62 58 55 53 52 52 51 52 50 50 49 44 40 38 39 39 34 30 32 42 71 82 77 65 59 57 50 45 41 34 43 56 53 50 46 41 39 41 42 41 38 32
136 148 154 153 148 156 147 147 142 137 134 131 130 128 126 127 125 127 123 120 120 118 118 116 112 109 104 100 101 104 103 102 100 95 94 96 95 92 89 81 74 69 66 61 60 58 55 56 56 55 54 54 50 50 45 43 42 42 39 34 35 39 51 72 79 72 64 61 56 52 46 43 39 35 58 53 50 46 43 38 38 38 41 42 38
154 151 143 148 149 149 143 144 144 142 138 135 136 136 134 132 129 128 130 126 124 122 121 120 116 111 105 105 105 104 104 103 99 98 99 98 97 92 86 79 74 69 65 60 58 59 58 58 59 59 58 56 54 52 50 48 47 43 40 38 39 44 54 66 70 69 61 60 57 56 53 46 43 45 55 55 50 47 45 44 33 37 39 38 39
159 150 149 147 149 149 142 147 146 146 143 141 139 139 139 135 136 134 134 132 128 129 128 127 121 117 111 108 107 105 106 104 103 104 105 103 102 95 87 82 75 70 64 60 59 60 63 62 61 62 61 58 57 57 57 54 53 45 42 43 45 50 57 58 55 54 51 44 43 43 61 59 44 50 53 52 49 49 50 49 50 49 45 40 37
159 153 156 155 155 149 151 149 147 151 149 145 148 142 140 141 140 140 137 139 136 134 133 131 127 121 115 112 110 107 106 106 107 110 109 107 102 96 89 85 81 73 65 62 61 64 67 67 66 65 63 62 59 61 61 59 53 46 44 46 50 57 64 62 56 52 47 44 41 28 30 52 48 48 56 53 51 50 50 52 53 52 48 46 43
158 147 142 141 156 153 155 153 157 157 152 154 153 148 146 146 144 142 142 144 144 138 136 134 131 126 122 119 115 112 111 113 115 115 111 109 105 101 95 89 82 76 71 65 64 67 69 68 68 67 66 63 63 65 65 60 54 50 48 50 58 63 63 63 60 54 48 43 38 24 19 17 52 55 57 54 51 49 47 45 47 47 48 47 47
144 139 124 140 154 160 155 157 160 155 157 163 158 154 149 152 150 145 147 149 147 143 139 137 133 134 129 123 119 116 115 119 121 118 115 113 109 103 96 91 85 81 74 67 63 66 68 68 67 65 65 65 67 68 66 62 58 54 54 60 65 66 63 58 60 56 48 42 37 26 20 3 17 53 53 52 48 46 48 48 48 47 49 50 51
126 125 128 129 132 157 156 159 161 159 160 162 157 154 156 152 154 151 152 154 148 142 144 139 139 137 132 126 121 120 119 120 123 123 119 117 112 106 101 97 90 84 76 68 64 63 65 66 64 62 62 63 66 68 66 63 61 59 61 65 67 67 60 56 53 53 49 39 32 27 17 2 40 46 50 51 46 44 45 45 47 48 48 47 48
104 89 101 103 94 101 152 156 159 160 157 158 153 159 162 156 163 152 156 152 145 142 144 136 136 133 130 129 127 127 124 126 128 128 126 124 119 112 106 100 92 86 80 72 67 66 66 64 61 57 56 59 62 61 59 58 59 60 64 68 69 67 64 61 53 49 46 37 25 23 15 352 45 46 46 49 46 42 44 43 44 45 48 48 46
66 76 67 67 75 89 106 143 144 152 149 148 152 157 160 160 155 140 141 153 151 148 144 138 132 136 137 132 128 130 132 132 133 131 130 126 120 114 107 99 95 89 83 78 73 72 70 67 63 60 58 60 60 57 55 54 53 55 59 64 67 68 68 71 61 53 45 35 27 24 3 349 43 49 47 45 43 42 42 45 43 43 44 45 43
59 62 64 45 42 40 166 148 136 140 144 149 157 164 161 157 168 152 136 144 157 153 146 142 130 129 134 134 129 118 124 130 135 131 127 125 123 115 109 103 96 90 86 83 79 78 76 75 72 71 70 68 65 62 59 58 55 55 60 64 68 68 65 65 61 48 43 35 33 17 358 339 50 48 44 45 43 42 40 41 38 45 31 38 41
36 43 43 33 31 6 49 86 132 144 140 154 155 155 163 170 170 151 118 75 155 145 143 142 136 127 120 107 109 116 122 131 134 134 134 130 118 121 116 107 100 95 93 89 85 82 81 78 76 77 80 76 71 67 64 64 61 59 63 67 69 69 65 62 63 47 44 38 24 9 5 356 61 56 49 49 44 41 41 42 37 38 39 31 34
38 38 36 27 8 1 26 351 126 133 158 159 151 169 179 174 164 138 99 96 117 155 144 138 134 134 127 118 100 94 108 132 138 140 137 126 127 130 119 111 107 104 100 95 91 85 83 80 75 72 72 73 67 62 58 54 50 48 51 59 60 62 58 54 51 44 37 35 16 13 355 14 70 65 59 61 50 46 36 41 40 36 28 24 34
44 31 24 19 1 15 21 4 17 25 174 165 165 163 178 173 143 123 136 197 190 162 152 145 142 137 130 121 121 116 111 126 140 140 141 124 130 127 122 119 117 113 109 106 102 97 90 85 80 72 67 65 61 57 55 54 49 47 46 48 50 52 48 46 45 38 25 17 11 2 8 16 41 53 43 41 42 50 49 31 36 27 28 25 26
25 26 22 6 2 7 354 10 5 7 5 245 173 183 181 164 160 159 170 193 107 8 149 136 129 130 129 131 131 134 135 139 149 147 133 121 134 132 130 129 125 118 116 115 112 109 102 92 84 74 62 49 46 54 53 55 52 51 51 51 54 51 46 48 42 38 31 19 14 358 16 16 16 34 35 34 35 37 42 47 31 23 21 27 25
15 3 6 6 5 360 346 352 353 356 355 327 208 182 172 176 164 154 163 168 164 101 111 142 123 86 122 133 125 145 134 145 143 147 136 130 142 140 134 130 125 124 128 125 122 117 113 103 92 77 61 44 39 48 54 52 53 55 56 59 56 57 52 54 46 38 35 22 19 12 23 21 14 23 25 22 22 25 27 28 22 14 33 29 27
15 4 356 360 358 339 347 339 343 340 332 335 271 181 172 178 162 168 167 168 161 119 87 139 152 142 149 143 133 149 165 162 135 150 128 129 147 141 139 136 129 132 131 127 122 118 110 105 89 73 57 50 44 47 56 53 48 50 49 48 52 48 49 46 47 41 31 28 23 22 23 25 23 20 18 20 18 16 15 15 23 21 33 39 24
9 2 336 338 357 354 338 326 335 329 315 315 317 195 176 181 156 139 156 163 159 132 145 147 58 107 126 124 153 166 162 153 154 146 128 128 155 149 146 143 133 130 130 119 107 94 77 74 77 84 74 66 64 54 56 61 63 62 62 58 59 54 54 49 47 38 27 21 22 26 27 27 26 25 25 26 23 15 10 9 10 22 31 22 13
328 316 360 346 341 344 339 332 326 304 306 308 333 310 195 171 160 155 154 138 141 151 154 152 149 131 141 146 158 157 138 118 150 128 105 118 149 148 143 140 137 129 127 117 107 92 78 63 56 73 100 97 80 54 55 59 59 68 69 67 66 62 59 51 49 41 29 23 20 23 22 26 28 29 27 28 28 22 17 9 9 12 13 24 22
3 35 353 331 333 329 326 314 310 300 294 325 315 295 236 168 160 145 144 136 136 136 133 133 125 136 143 125 118 121 110 124 108 102 118 141 152 152 150 144 147 143 126 118 99 94 85 86 85 91 95 96 87 68 37 52 63 56 58 57 59 55 51 48 43 42 29 26 17 22 17 24 28 31 29 31 31 29 27 22 18 15 11 8 11
17 26 337 310 320 323 317 316 307 307 321 342 290 9 95 143 131 136 122 108 92 97 80 80 95 105 111 110 120 125 124 127 110 110 116 121 82 123 115 113 135 130 119 123 107 84 114 113 106 98 90 88 72 61 55 37 54 68 57 56 58 55 50 46 43 38 28 25 19 20 22 25 28 28 30 32 29 27 25 22 21 22 21 19 16
32 18 308 315 316 319 306 307 300 299 326 257 88 73 71 85 80 72 99 80 87 69 80 57 60 63 67 78 106 94 108 94 89 81 82 84 84 74 72 107 96 144 121 132 148 149 136 121 114 91 69 54 72 70 56 35 44 59 61 53 58 56 54 54 54 42 34 27 25 21 25 26 29 29 30 28 25 24 24 23 21 22 21 20 19
44 348 317 336 332 317 312 320 320 291 159 113 89 84 83 80 72 64 71 63 78 63 71 58 53 55 50 55 65 78 72 80 73 67 73 62 59 63 60 51 41 86 119 43 100 113 106 102 94 98 83 71 57 61 56 40 37 35 53 50 50 51 49 52 48 48 45 44 40 34 35 31 35 36 33 30 29 28 28 26 24 22 21 21 19
70 342 335 331 317 317 327 332 334 91 102 94 87 82 76 77 63 63 62 63 59 60 63 58 43 50 46 50 54 67 70 72 68 64 70 65 58 48 50 41 51 26 45 59 34 63 67 68 73 73 69 60 52 28 50 41 36 32 29 45 46 56 57 56 53 54 52 46 42 39 39 38 39 40 38 36 35 33 30 28 24 22 20 19 19
78 27 334 325 311 330 352 353 27 86 94 86 82 76 66 65 57 53 55 60 60 60 53 57 42 45 45 48 54 54 66 66 71 68 68 68 59 55 46 41 43 37 41 60 43 53 60 56 59 57 55 62 58 54 58 54 41 34 25 41 28 53 62 65 63 59 56 49 50 44 37 40 40 40 38 36 34 32 30 28 26 23 21 19 18
75 4 313 303 349 7 9 19 48 80 94 90 84 80 68 71 64 61 55 71 71 60 52 57 51 53 45 53 60 60 67 69 71 72 76 76 68 61 50 48 42 34 41 48 58 50 54 49 55 56 56 56 55 51 49 62 49 35 21 34 37 63 68 70 68 65 62 57 51 45 42 39 35 40 37 34 33 31 31 29 26 24 22 20 18
58 269 320 21 39 21 24 27 56 76 88 88 85 83 83 80 77 78 76 76 78 74 56 53 60 64 61 62 62 66 63 77 75 79 81 78 76 71 62 54 50 47 52 54 56 55 58 51 46 48 48 51 47 37 36 47 45 27 27 27 57 69 69 71 70 65 60 56 52 47 46 42 40 36 35 35 32 32 31 30 27 25 23 22 19
173 176 92 66 47 39 51 59 63 80 87 89 92 88 87 87 77 86 80 76 75 79 73 69 70 70 73 71 75 70 72 75 85 83 85 84 78 73 71 62 57 63 65 62 60 50 61 56 46 52 44 48 47 32 36 42 34 32 36 27 66 69 73 70 69 65 62 59 54 51 44 43 42 41 35 33 32 30 29 29 28 26 25 23 21
175 116 101 97 80 64 67 70 71 89 91 88 81 86 88 82 80 73 75 72 69 72 73 67 67 71 72 73 76 82 81 81 80 89 80 83 82 80 70 64 71 75 69 65 76 53 56 54 36 56 54 48 52 45 42 47 38 39 28 37 64 68 71 73 68 63 56 57 55 48 43 42 38 39 34 31 27 27 27 26 26 25 23 24 24
131 124 111 100 90 81 83 94 82 89 87 93 88 77 81 97 84 68 73 74 69 61 53 57 59 64 67 71 69 76 79 80 79 78 81 78 83 79 70 67 69 74 70 67 68 63 60 59 43 38 59 44 40 39 32 43 40 48 45 54 58 62 71 68 65 60 52 54 49 44 39 36 35 35 33 30 25 23 24 24 21 21 18 19 21
138 123 121 111 100 95 94 102 98 93 98 98 101 100 86 74 77 80 77 77 67 52 56 59 63 61 59 64 61 69 70 71 72 71 83 79 78 78 71 67 65 74 75 68 65 60 61 68 51 39 50 63 46 39 37 36 55 60 59 61 60 65 63 62 59 58 53 52 46 40 37 32 31 32 29 28 24 17 14 21 19 15 13 12 18
119 120 119 119 117 111 109 106 107 105 105 102 105 102 95 93 87 79 75 71 64 55 47 65 65 65 65 65 61 65 68 72 70 72 80 74 74 74 71 66 73 75 73 67 65 60 58 61 69 45 43 58 49 42 38 43 71 71 64 65 65 68 66 64 62 56 54 49 45 41 36 33 33 27 26 24 22 17 16 12 15 12 8 7 12
124 126 119 115 114 112 113 114 115 115 110 109 107 99 99 98 92 87 77 73 71 64 53 56 59 66 65 67 69 70 70 72 76 73 79 77 74 69 68 58 66 74 74 68 61 56 58 51 67 59 51 56 63 46 44 81 81 78 72 67 72 71 70 69 65 59 54 52 44 35 37 31 28 26 22 18 15 18 13 10 11 11 1 3 7
132 132 127 126 122 119 119 120 124 126 122 116 112 107 107 102 102 96 82 74 74 72 62 66 62 68 63 68 69 71 68 74 75 77 80 78 76 70 70 58 62 72 72 67 56 51 56 63 55 64 64 57 45 34 33 71 83 79 84 69 64 73 70 70 64 59 54 46 41 37 34 25 31 21 19 14 17 16 12 5 4 6 7 358 3
137 141 134 135 137 136 135 135 143 141 137 132 128 128 121 106 84 82 97 89 88 85 76 66 67 66 67 67 67 68 69 70 70 77 79 80 77 76 74 64 63 69 71 69 63 58 47 59 72 53 55 56 32 14 8 11 94 76 66 76 69 53 76 71 62 54 49 44 42 42 28 30 23 21 9 12 17 12 10 3 357 359 4 4 359
153 150 147 152 150 149 146 146 150 145 136 132 130 120 106 123 125 120 113 102 99 92 89 72 73 69 64 64 66 67 71 72 73 76 76 78 82 74 70 70 69 74 77 74 64 56 49 41 40 68 43 67 54 15 357 65 31 113 113 54 20 18 74 71 63 45 45 41 41 43 32 31 23 12 8 16 11 7 4 1 356 357 357 0 359
149 152 141 134 134 137 142 149 140 127 115 118 119 115 109 105 113 117 114 105 72 84 89 87 80 78 66 62 64 67 74 73 71 74 81 79 83 85 77 75 67 75 77 63 57 53 47 47 41 83 76 51 74 34 27 31 128 126 126 85 9 353 309 19 36 35 37 41 44 40 32 28 18 12 7 10 8 1 360 357 357 357 354 356 357
146 143 146 140 132 131 132 126 122 115 113 106 111 104 103 101 92 104 91 94 115 99 87 79 77 77 68 62 57 68 73 81 77 82 85 83 86 88 90 80 75 69 82 80 65 60 49 47 51 49 88 75 46 42 35 39 70 96 22 96 174 113 0 338 347 300 357 60 42 41 32 26 14 9 10 10 358 357 352 353 358 353 354 354 356
162 159 152 151 138 137 129 126 127 124 119 124 123 121 113 102 103 93 99 94 78 92 92 71 70 81 85 62 61 68 79 82 79 79 86 87 85 89 88 86 83 73 79 83 78 74 69 63 59 68 53 104 79 71 32 32 43 35 134 93 13 35 196 259 340 287 348 32 18 41 27 23 14 7 7 356 350 355 350 350 351 353 354 357 358
165 165 154 144 137 130 128 126 119 125 130 129 134 134 132 130 129 122 117 109 107 107 111 121 108 95 94 103 75 68 80 79 75 80 82 86 83 81 84 85 81 76 74 84 86 73 57 57 40 71 71 45 112 88 72 34 48 42 47 77 137 154 203 281 73 315 344 96 10 33 30 11 15 1 356 357 354 343 353 346 350 349 352 360 0
163 150 140 142 139 137 140 136 134 133 134 138 141 134 123 122 128 127 128 127 120 88 99 100 114 108 103 93 84 65 63 81 73 75 78 80 83 78 79 80 79 78 75 78 73 73 71 64 52 63 58 68 77 80 70 357 26 41 39 53 62 55 93 106 63 348 348 323 2 21 9 5 358 3 355 351 346 349 343 347 350 350 352 3 6
153 148 147 146 144 146 144 136 136 140 140 142 140 150 130 126 116 112 117 123 123 134 133 122 107 113 98 87 83 70 63 66 79 72 72 76 82 79 79 80 79 73 79 79 87 87 86 67 65 71 67 57 71 96 84 30 92 28 25 62 64 62 61 65 83 137 186 305 314 341 33 8 343 349 353 339 337 338 333 336 345 347 350 2 8
158 154 157 149 143 146 144 136 139 141 137 140 135 133 136 130 127 123 113 112 119 127 124 116 110 107 97 88 84 81 72 64 66 74 68 72 73 81 80 83 85 84 87 88 81 78 78 81 71 66 69 62 62 84 85 66 69 51 62 31 58 62 56 78 68 66 88 32 299 350 325 341 320 312 347 329 319 327 327 326 331 339 350 358 8
161 150 143 137 141 145 144 139 139 141 138 129 126 127 138 131 128 131 127 130 128 124 120 118 113 115 104 98 92 85 82 75 64 63 70 66 75 77 83 86 90 89 84 88 88 80 76 73 70 80 80 80 65 71 85 83 77 60 66 83 61 18 34 23 26 20 22 73 78 311 329 341 341 320 329 334 331 320 321 326 334 334 351 0 2
154 147 141 142 146 148 146 143 143 141 140 133 134 136 139 137 132 137 136 138 140 135 129 121 125 119 111 104 97 94 84 83 79 69 68 73 77 76 85 85 82 83 82 79 76 81 78 84 85 80 71 79 79 86 81 73 79 71 60 66 78 81 111 105 64 38 100 28 357 296 316 298 274 306 288 328 317 311 315 322 342 328 354 2 9